Date String (YYYY-MM-DD hh:mm:ss) UTC,Instrument flags,Ambient pressure (hPa),Sample flow (lpm),Bypass flow (lpm),Sample temperature (°C),Ambient temperature (°C),ASC tube jacket temperature (°C),LED temperature (°C),Box temperature (°C),Sample RH (%),Span deviation,Mass concentration (μg/m³),Mass concentration (μg/m³),Mass concentration (μg/m³)
DateTimeUTC,F1_M11,P_M11,Q1_M11,Q2_M11,T1_M11,T2_M11,T3_M11,T4_M11,T5_M11,U1_M11,ZSPAN_M11,X2_M11,X0_M11,X1_M11
2023-04-12 09:00:00,,0827.0,5.00,0.00,29.5,27.7,00.0,37.9,31.0,08.2,0000.0,0004.47,0011.44,0003.13
2023-04-12 09:01:00,,0827.0,5.00,0.00,29.5,27.7,00.0,37.9,31.0,08.2,0000.0,0004.47,0011.88,0003.14
2023-04-12 09:02:00,,0827.0,5.00,0.00,29.5,27.7,00.0,37.9,31.0,08.2,0000.0,0004.46,0011.88,0003.14
2023-04-12 09:03:00,,0827.0,5.00,0.00,29.5,27.7,00.0,37.9,31.0,08.2,0000.0,0004.42,0011.30,0003.14
2023-04-12 09:04:00,,0827.0,5.00,0.00,29.5,27.7,00.0,37.9,31.0,08.3,0000.0,0004.37,0010.91,0003.13
2023-04-12 09:05:00,,0827.1,5.00,0.00,29.5,27.7,00.0,37.9,31.0,08.3,0000.0,0004.36,0010.85,0003.13
2023-04-12 09:06:00,,0827.1,4.99,0.00,29.5,27.7,00.0,37.9,31.0,08.2,0000.0,0004.38,0011.49,0003.12
2023-04-12 09:07:00,,0827.0,5.00,0.00,29.5,27.7,00.0,37.9,31.0,08.2,0000.0,0004.44,0012.06,0003.13
2023-04-12 09:08:00,,0826.9,5.00,0.00,29.5,27.7,00.0,37.9,31.0,08.2,0000.0,0004.42,0012.07,0003.13
2023-04-12 09:09:00,,0826.9,5.00,0.00,29.5,27.7,00.0,37.9,31.0,08.1,0000.0,0004.38,0011.93,0003.11
2023-04-12 09:10:00,,0826.9,5.00,0.00,29.5,27.7,00.0,37.9,31.0,08.1,0000.0,0004.36,0012.32,0003.11
2023-04-12 09:11:00,,0827.0,5.00,0.00,29.5,27.7,00.0,37.9,31.0,08.2,0000.0,0004.38,0012.28,0003.11
2023-04-12 09:12:00,,0827.0,5.00,0.00,29.5,27.7,00.0,37.9,31.0,08.2,0000.0,0004.39,0011.84,0003.11
2023-04-12 09:13:00,,0826.9,5.00,0.00,29.5,27.6,00.0,37.9,30.9,08.1,0000.0,0004.31,0011.36,0003.11
2023-04-12 09:14:00,,0826.9,5.00,0.00,29.5,27.6,00.0,37.9,30.9,08.1,0000.0,0004.28,0011.34,0003.11
2023-04-12 09:15:00,,0827.0,5.00,0.00,29.5,27.6,00.0,37.8,30.9,08.2,0000.0,0004.28,0011.39,0003.11
2023-04-12 09:16:00,,0826.9,5.00,0.00,29.4,27.6,00.0,37.8,30.9,08.1,0000.0,0004.32,0012.22,0003.12
2023-04-12 09:17:00,,0826.9,4.99,0.00,29.4,27.6,00.0,37.8,30.9,08.1,0000.0,0004.32,0011.81,0003.13
2023-04-12 09:18:00,,0826.9,5.00,0.00,29.4,27.6,00.0,37.8,30.9,08.1,0000.0,0004.29,0011.37,0003.13
2023-04-12 09:19:00,,0826.9,5.01,0.00,29.4,27.6,00.0,37.8,30.9,08.1,0000.0,0004.29,0011.42,0003.13
2023-04-12 09:20:00,,0826.9,5.00,0.00,29.4,27.6,00.0,37.8,30.9,08.1,0000.0,0004.30,0012.49,0003.14
2023-04-12 09:21:00,,0826.9,5.00,0.00,29.4,27.6,00.0,37.8,30.9,08.0,0000.0,0004.29,0012.80,0003.13
2023-04-12 09:22:00,,0826.9,5.01,0.00,29.4,27.5,00.0,37.8,30.8,08.0,0000.0,0004.30,0012.43,0003.13
2023-04-12 09:23:00,,0826.9,5.00,0.00,29.4,27.5,00.0,37.8,30.8,08.0,0000.0,0004.31,0012.65,0003.12
2023-04-12 09:24:00,,0826.9,5.00,0.00,29.4,27.5,00.0,37.8,30.9,08.0,0000.0,0004.36,0013.08,0003.11
2023-04-12 09:25:00,,0826.9,5.00,0.00,29.4,27.5,00.0,37.8,30.8,08.2,0000.0,0004.35,0013.64,0003.09
2023-04-12 09:26:00,,0826.9,5.00,0.00,29.4,27.5,00.0,37.8,30.8,08.1,0000.0,0004.36,0014.07,0003.07
2023-04-12 09:27:00,,0826.8,4.99,0.00,29.3,27.5,00.0,37.8,30.8,08.0,0000.0,0004.31,0013.68,0003.04
2023-04-12 09:28:00,,0826.8,5.00,0.00,29.3,27.5,00.0,37.8,30.8,07.9,0000.0,0004.27,0013.06,0003.01
2023-04-12 09:29:00,,0826.8,4.99,0.00,29.3,27.5,00.0,37.7,30.8,07.9,0000.0,0004.22,0013.04,0002.98
2023-04-12 09:30:00,,0826.8,4.99,0.00,29.3,27.5,00.0,37.7,30.8,07.9,0000.0,0004.14,0012.68,0002.97
2023-04-12 09:31:00,,0826.7,4.99,0.00,29.3,27.5,00.0,37.7,30.8,07.9,0000.0,0004.11,0011.62,0002.94
2023-04-12 09:32:00,,0826.8,5.00,0.00,29.3,27.5,00.0,37.7,30.8,07.9,0000.0,0004.13,0011.05,0002.92
2023-04-12 09:33:00,,0826.8,5.00,0.00,29.3,27.5,00.0,37.7,30.9,07.9,0000.0,0004.11,0011.00,0002.93
2023-04-12 09:34:00,,0826.8,4.99,0.00,29.3,27.5,00.0,37.7,30.9,08.0,0000.0,0004.05,0011.26,0002.92
2023-04-12 09:35:00,,0826.8,5.00,0.00,29.3,27.5,00.0,37.7,30.8,08.2,0000.0,0004.00,0011.14,0002.91
2023-04-12 09:36:00,,0826.7,5.00,0.00,29.3,27.5,00.0,37.7,30.8,08.1,0000.0,0004.06,0010.90,0002.93
2023-04-12 09:37:00,,0826.7,5.00,0.00,29.3,27.4,00.0,37.7,30.8,08.1,0000.0,0004.04,0010.34,0002.93
2023-04-12 09:38:00,,0826.6,5.00,0.00,29.3,27.4,00.0,37.7,30.7,08.0,0000.0,0004.01,0009.89,0002.92
2023-04-12 09:39:00,,0826.7,5.00,0.00,29.3,27.4,00.0,37.7,30.7,07.9,0000.0,0004.00,0009.72,0002.92
2023-04-12 09:40:00,,0826.8,5.00,0.00,29.2,27.4,00.0,37.7,30.7,07.9,0000.0,0004.03,0009.44,0002.93
2023-04-12 09:41:00,,0826.8,5.00,0.00,29.2,27.4,00.0,37.7,30.7,08.0,0000.0,0004.08,0010.29,0002.92
2023-04-12 09:42:00,,0826.8,5.00,0.00,29.2,27.4,00.0,37.6,30.7,08.0,0000.0,0004.09,0010.66,0002.94
2023-04-12 09:43:00,,0826.8,5.00,0.00,29.2,27.4,00.0,37.6,30.7,07.9,0000.0,0004.07,0010.52,0002.97
2023-04-12 09:44:00,,0826.8,4.99,0.00,29.2,27.4,00.0,37.6,30.7,07.9,0000.0,0004.04,0010.64,0002.97
2023-04-12 09:45:00,,0826.8,5.00,0.00,29.2,27.4,00.0,37.6,30.7,08.2,0000.0,0004.02,0010.41,0002.96
2023-04-12 09:46:00,,0826.8,5.00,0.00,29.2,27.4,00.0,37.6,30.7,08.1,0000.0,0004.01,0010.53,0002.94
2023-04-12 09:47:00,,0826.8,5.00,0.00,29.2,27.4,00.0,37.6,30.7,07.9,0000.0,0003.97,0010.44,0002.91
2023-04-12 09:48:00,,0826.8,5.00,0.00,29.2,27.4,00.0,37.6,30.7,08.0,0000.0,0003.96,0010.39,0002.92
2023-04-12 09:49:00,,0826.8,5.01,0.00,29.2,27.4,00.0,37.6,30.7,07.9,0000.0,0004.00,0011.32,0002.92
2023-04-12 09:50:00,,0826.8,5.00,0.00,29.2,27.4,00.0,37.6,30.7,07.8,0000.0,0004.03,0011.60,0002.91
2023-04-12 09:51:00,,0826.7,5.00,0.00,29.2,27.4,00.0,37.6,30.7,07.8,0000.0,0004.01,0011.63,0002.92
2023-04-12 09:52:00,,0826.7,5.00,0.00,29.2,27.4,00.0,37.6,30.7,07.8,0000.0,0004.01,0011.16,0002.92
2023-04-12 09:53:00,,0826.8,5.00,0.00,29.2,27.4,00.0,37.6,30.7,08.0,0000.0,0004.02,0010.85,0002.92
2023-04-12 09:54:00,,0826.8,5.00,0.00,29.2,27.4,00.0,37.6,30.7,08.0,0000.0,0004.01,0010.74,0002.89
2023-04-12 09:55:00,,0826.7,5.00,0.00,29.2,27.4,00.0,37.6,30.7,07.8,0000.0,0004.00,0010.78,0002.88
2023-04-12 09:56:00,,0826.6,4.98,0.00,29.2,27.4,00.0,37.6,30.7,07.8,0000.0,0004.01,0010.50,0002.87
2023-04-12 09:57:00,,0826.7,5.00,0.00,29.2,27.4,00.0,37.5,30.7,07.8,0000.0,0004.01,0010.53,0002.87
2023-04-12 09:58:00,,0826.7,5.00,0.00,29.2,27.4,00.0,37.5,30.7,07.8,0000.0,0003.99,0010.60,0002.89
2023-04-12 09:59:00,,0826.8,4.99,0.00,29.2,27.4,00.0,37.5,30.7,07.8,0000.0,0003.98,0011.41,0002.88
